Location: Bittelbronn
(48.4454°N, 8.5870°E)
Time: 18:51:25
(UTC+00:00)

Meteor 2-5 Rocket - Pass Details

Date: 23 May 2024
Orbit: 832 x 911 km, 81.2° (Epoch: 24 June)

Event Time Altitude Azimuth Distance (km) Brightness Sun altitude
Exits shadow 02:43:03 - 210° (SSW) 2,760 5.8 -7.7°
Reaches altitude 10° 02:43:33 10° 211° (SSW) 2,578 5.6 -7.6°
Maximum altitude 02:49:17 52° 287° (WNW) 1,121 4.2 -6.9°
Drops below altitude 10° 02:55:07 10° 4° (N) 2,611 7.0 -6.2°
Sets 02:57:41 0° 9° (N) 3,556 7.8 -5.9°
